When you browse on this site, cookies collect data to enhance your experience and personalize the content and advertising you see.
Visit our Privacy Policy to learn more. By continuing to use the site, you agree to this use of cookies and data.

Hourly Weather Fleet

Today, 12 July, Sunday

Time Temperature Precipitation Wind Pressure Humidity
00:00 +12°C° 0 mm 1 mps 763 mmHg 78%
01:00 +11°C° 0 mm 1 mps 763 mmHg 80%
02:00 +11°C° 0 mm 1 mps 763 mmHg 82%
03:00 +10°C° 0 mm 1 mps 763 mmHg 84%
04:00 +11°C° 0 mm 1 mps 763 mmHg 82%
05:00 +12°C° 0 mm 1 mps 763 mmHg 79%
06:00 +13°C° 0 mm 1 mps 763 mmHg 77%
07:00 +14°C° 0 mm 0 mps 763 mmHg 71%
08:00 +16°C° 0 mm 0 mps 763 mmHg 64%
09:00 +18°C° 0 mm 0 mps 764 mmHg 58%
10:00 +18°C° 0 mm 0 mps 764 mmHg 54%
11:00 +21°C° 0 mm 1 mps 764 mmHg 50%
12:00 +22°C° 0 mm 1 mps 764 mmHg 46%
13:00 +22°C° 0 mm 1 mps 763 mmHg 46%
14:00 +23°C° 0 mm 1 mps 763 mmHg 46%
15:00 +23°C° 0 mm 2 mps 763 mmHg 45%
16:00 +21°C° 0 mm 2 mps 763 mmHg 49%
17:00 +21°C° 0 mm 2 mps 763 mmHg 52%
18:00 +21°C° 0 mm 2 mps 762 mmHg 56%
19:00 +18°C° 0 mm 2 mps 762 mmHg 62%
20:00 +16°C° 0 mm 2 mps 762 mmHg 69%
21:00 +14°C° 0 mm 2 mps 762 mmHg 75%
22:00 +14°C° 0 mm 2 mps 762 mmHg 76%
23:00 +13°C° 0 mm 1 mps 762 mmHg 77%

Tomorrow, 13 July, Monday

Time Temperature Precipitation Wind Pressure Humidity
00:00 +13°C° 0 mm 1 mps 762 mmHg 78%
01:00 +12°C° 0 mm 1 mps 762 mmHg 78%
02:00 +12°C° 0 mm 1 mps 762 mmHg 77%
03:00 +11°C° 0 mm 1 mps 761 mmHg 77%
04:00 +12°C° 0 mm 1 mps 761 mmHg 75%
05:00 +13°C° 0 mm 1 mps 761 mmHg 73%
06:00 +14°C° 0 mm 1 mps 761 mmHg 72%
07:00 +16°C° 0 mm 2 mps 761 mmHg 66%
08:00 +18°C° 0 mm 2 mps 761 mmHg 60%
09:00 +20°C° 0 mm 3 mps 761 mmHg 54%
10:00 +20°C° 0 mm 3 mps 761 mmHg 53%
11:00 +21°C° 0 mm 4 mps 760 mmHg 52%
12:00 +22°C° 0 mm 4 mps 760 mmHg 51%
13:00 +22°C° 0 mm 4 mps 760 mmHg 52%
14:00 +21°C° 0 mm 4 mps 759 mmHg 54%
15:00 +21°C° 0 mm 4 mps 759 mmHg 56%
16:00 +21°C° 0 mm 4 mps 759 mmHg 60%
17:00 +20°C° 0 mm 4 mps 758 mmHg 64%
18:00 +20°C° 0 mm 4 mps 758 mmHg 69%
19:00 +18°C° 0 mm 4 mps 758 mmHg 72%
20:00 +17°C° 0 mm 3 mps 758 mmHg 76%
21:00 +16°C° 0 mm 3 mps 758 mmHg 79%
22:00 +16°C° 0.1 mm 3 mps 757 mmHg 82%
23:00 +14°C° 0.1 mm 3 mps 757 mmHg 85%

Day after tomorrow, 14 July, Tuesday

Time Temperature Precipitation Wind Pressure Humidity
00:00 +14°C° 0.1 mm 3 mps 757 mmHg 88%
01:00 +15°C° 0.2 mm 2 mps 756 mmHg 91%
02:00 +15°C° 0.2 mm 2 mps 756 mmHg 94%
03:00 +14°C° 0.2 mm 2 mps 756 mmHg 97%
04:00 +15°C° 0 mm 2 mps 756 mmHg 96%
05:00 +15°C° 0 mm 2 mps 756 mmHg 95%
06:00 +16°C° 0 mm 2 mps 756 mmHg 94%
07:00 +16°C° 0 mm 2 mps 756 mmHg 90%
08:00 +17°C° 0 mm 2 mps 756 mmHg 86%
09:00 +18°C° 0 mm 2 mps 756 mmHg 82%
10:00 +18°C° 0.1 mm 3 mps 756 mmHg 78%
11:00 +18°C° 0.1 mm 3 mps 756 mmHg 74%
12:00 +19°C° 0.1 mm 4 mps 755 mmHg 70%
13:00 +19°C° 0 mm 4 mps 755 mmHg 66%
14:00 +19°C° 0 mm 4 mps 755 mmHg 63%
15:00 +20°C° 0 mm 5 mps 755 mmHg 60%
16:00 +19°C° 0 mm 4 mps 755 mmHg 62%
17:00 +18°C° 0 mm 4 mps 755 mmHg 63%
18:00 +18°C° 0 mm 4 mps 755 mmHg 64%
19:00 +17°C° 0 mm 3 mps 755 mmHg 69%
20:00 +16°C° 0 mm 3 mps 755 mmHg 73%
21:00 +14°C° 0 mm 2 mps 755 mmHg 78%
22:00 +14°C° 0 mm 2 mps 755 mmHg 81%
23:00 +13°C° 0 mm 2 mps 755 mmHg 84%

15 July, Wednesday

Time Temperature Precipitation Wind Pressure Humidity
00:00 +12°C° 0 mm 2 mps 755 mmHg 87%
01:00 +12°C° 0 mm 2 mps 755 mmHg 85%
02:00 +12°C° 0 mm 3 mps 755 mmHg 82%
03:00 +12°C° 0 mm 3 mps 755 mmHg 79%
04:00 +13°C° 0 mm 3 mps 755 mmHg 80%
05:00 +13°C° 0 mm 3 mps 754 mmHg 82%
06:00 +13°C° 0 mm 3 mps 754 mmHg 83%
07:00 +14°C° 0 mm 3 mps 754 mmHg 82%
08:00 +16°C° 0 mm 3 mps 755 mmHg 81%
09:00 +16°C° 0 mm 3 mps 755 mmHg 80%
10:00 +18°C° 0 mm 4 mps 755 mmHg 76%
11:00 +19°C° 0 mm 4 mps 755 mmHg 71%
12:00 +20°C° 0 mm 4 mps 755 mmHg 67%
13:00 +20°C° 0 mm 4 mps 755 mmHg 68%
14:00 +20°C° 0 mm 4 mps 755 mmHg 68%
15:00 +20°C° 0 mm 4 mps 755 mmHg 69%
16:00 +20°C° 0 mm 4 mps 755 mmHg 72%
17:00 +20°C° 0 mm 3 mps 755 mmHg 75%
18:00 +19°C° 0 mm 3 mps 755 mmHg 79%
19:00 +19°C° 0 mm 3 mps 755 mmHg 82%
20:00 +18°C° 0 mm 3 mps 756 mmHg 85%
21:00 +17°C° 0 mm 3 mps 756 mmHg 88%
22:00 +16°C° 0 mm 3 mps 756 mmHg 89%
23:00 +14°C° 0 mm 3 mps 756 mmHg 91%

16 July, Thursday

Time Temperature Precipitation Wind Pressure Humidity
00:00 +14°C° 0 mm 3 mps 756 mmHg 92%
01:00 +13°C° 0 mm 3 mps 756 mmHg 93%
02:00 +13°C° 0 mm 3 mps 756 mmHg 94%
03:00 +12°C° 0 mm 3 mps 756 mmHg 96%
04:00 +13°C° 0 mm 3 mps 756 mmHg 93%
05:00 +14°C° 0 mm 3 mps 756 mmHg 89%
06:00 +15°C° 0 mm 4 mps 757 mmHg 86%
07:00 +17°C° 0 mm 4 mps 757 mmHg 82%
08:00 +18°C° 0 mm 4 mps 757 mmHg 77%
09:00 +19°C° 0 mm 4 mps 758 mmHg 72%
10:00 +19°C° 0 mm 4 mps 758 mmHg 71%
11:00 +20°C° 0 mm 3 mps 758 mmHg 69%
12:00 +21°C° 0 mm 3 mps 758 mmHg 67%
13:00 +21°C° 0 mm 3 mps 758 mmHg 67%
14:00 +21°C° 0 mm 3 mps 758 mmHg 67%
15:00 +21°C° 0 mm 3 mps 758 mmHg 67%
16:00 +21°C° 0 mm 3 mps 758 mmHg 68%
17:00 +20°C° 0 mm 3 mps 758 mmHg 69%
18:00 +20°C° 0 mm 2 mps 758 mmHg 70%
19:00 +20°C° 0 mm 2 mps 758 mmHg 73%
20:00 +19°C° 0 mm 2 mps 758 mmHg 76%
21:00 +18°C° 0 mm 2 mps 759 mmHg 79%
22:00 +18°C° 0 mm 1 mps 759 mmHg 79%
23:00 +18°C° 0 mm 1 mps 759 mmHg 80%

17 July, Friday

Time Temperature Precipitation Wind Pressure Humidity
00:00 +18°C° 0 mm 1 mps 759 mmHg 80%
01:00 +18°C° 0 mm 1 mps 759 mmHg 80%
02:00 +18°C° 0 mm 1 mps 758 mmHg 79%
03:00 +18°C° 0 mm 1 mps 758 mmHg 79%
04:00 +18°C° 0 mm 1 mps 758 mmHg 79%
05:00 +18°C° 0 mm 1 mps 759 mmHg 79%
06:00 +19°C° 0 mm 1 mps 759 mmHg 80%
07:00 +20°C° 0 mm 1 mps 759 mmHg 75%
08:00 +20°C° 0 mm 2 mps 759 mmHg 70%
09:00 +21°C° 0 mm 2 mps 759 mmHg 65%
10:00 +21°C° 0 mm 2 mps 759 mmHg 63%
11:00 +23°C° 0 mm 2 mps 759 mmHg 62%
12:00 +23°C° 0 mm 2 mps 759 mmHg 60%
13:00 +24°C° 0 mm 2 mps 759 mmHg 60%
14:00 +24°C° 0 mm 2 mps 759 mmHg 60%
15:00 +24°C° 0 mm 3 mps 759 mmHg 60%
16:00 +24°C° 0.2 mm 3 mps 758 mmHg 66%
17:00 +22°C° 0.2 mm 3 mps 758 mmHg 72%
18:00 +21°C° 0.2 mm 3 mps 758 mmHg 78%
19:00 +20°C° 0.1 mm 2 mps 758 mmHg 82%
20:00 +19°C° 0.1 mm 2 mps 759 mmHg 87%
21:00 +18°C° 0.1 mm 2 mps 759 mmHg 91%
22:00 +17°C° 0 mm 2 mps 759 mmHg 92%
23:00 +17°C° 0 mm 2 mps 759 mmHg 93%
Show more